Location: Franzen
(48.6167°N, 15.3833°E)
Time: 09:36:52
(UTC+00:00)

Altair - Pass Details

Date: 08 August 2021
Orbit: 1501 x 1682 km, 47.2° (Epoch: 20 September)

Event Time Altitude Azimuth Distance (km) Brightness Sun altitude
Rises 03:09:37 0° 281° (WNW) 4,712 9.6 -5.5°
Reaches altitude 10° 03:12:42 10° 280° (W) 3,708 9.1 -5.1°
Maximum altitude 03:21:56 71° 199° (SSW) 1,583 7.5 -3.8°
Drops below altitude 10° 03:31:00 10° 118° (ESE) 3,650 10.0 -2.5°
Sets 03:34:02 0° 116° (ESE) 4,634 10.6 -2.0°
